Time,TemperatureF,DewpointF,PressureIn,WindDirection,WindDirectionDegrees,WindSpeedMPH,WindSpeedGustMPH,Humidity,HourlyPrecipIn,Conditions,Clouds,dailyrainin,SoftwareType,DateUTC
2013-05-05 00:00:00,51.1,48.9,29.79,ESE,107,10.0,10.0,92,0.11,,,1.33,Wunderground v.1.15,2013-05-05 04:00:00,
2013-05-05 00:05:00,51.2,49.0,29.79,East,96,9.0,10.0,92,0.05,,,0.00,Wunderground v.1.15,2013-05-05 04:05:00,
2013-05-05 00:10:00,51.4,48.9,29.78,ESE,113,9.0,12.0,91,0.04,,,0.00,Wunderground v.1.15,2013-05-05 04:10:00,
2013-05-05 00:15:00,51.6,49.1,29.79,ESE,123,11.0,14.0,91,0.00,,,0.01,Wunderground v.1.15,2013-05-05 04:15:00,
2013-05-05 00:20:00,51.5,49.0,29.78,ESE,117,10.0,10.0,91,0.16,,,0.02,Wunderground v.1.15,2013-05-05 04:20:00,
2013-05-05 00:25:00,51.4,48.9,29.78,ESE,123,9.0,10.0,91,0.08,,,0.02,Wunderground v.1.15,2013-05-05 04:25:00,
2013-05-05 00:30:00,51.4,48.9,29.78,SE,132,10.0,11.0,91,0.06,,,0.03,Wunderground v.1.15,2013-05-05 04:30:00,
2013-05-05 00:35:00,51.4,48.9,29.78,SE,125,11.0,21.0,91,0.11,,,0.04,Wunderground v.1.15,2013-05-05 04:35:00,
2013-05-05 00:40:00,51.2,49.0,29.78,ESE,119,10.0,10.0,92,0.08,,,0.04,Wunderground v.1.15,2013-05-05 04:40:00,
2013-05-05 00:45:00,51.3,49.1,29.78,SE,132,10.0,15.0,92,0.05,,,0.04,Wunderground v.1.15,2013-05-05 04:45:00,
2013-05-05 00:50:00,51.2,49.0,29.77,SE,136,9.0,10.0,92,0.00,,,0.04,Wunderground v.1.15,2013-05-05 04:50:00,
2013-05-05 00:55:00,51.1,48.9,29.77,East,94,7.0,10.0,92,0.00,,,0.05,Wunderground v.1.15,2013-05-05 04:55:00,
2013-05-05 01:00:00,51.2,49.0,29.77,ESE,123,8.0,11.0,92,0.00,,,0.05,Wunderground v.1.15,2013-05-05 05:00:00,
2013-05-05 01:05:00,51.3,48.8,29.77,East,99,11.0,11.0,91,0.09,,,0.06,Wunderground v.1.15,2013-05-05 05:05:00,
2013-05-05 01:10:00,51.2,49.0,29.76,East,96,10.0,10.0,92,0.07,,,0.06,Wunderground v.1.15,2013-05-05 05:10:00,
2013-05-05 01:15:00,51.1,48.9,29.76,ESE,122,10.0,12.0,92,0.24,,,0.08,Wunderground v.1.15,2013-05-05 05:15:00,
2013-05-05 01:20:00,51.1,48.9,29.76,SE,135,11.0,11.0,92,0.10,,,0.08,Wunderground v.1.15,2013-05-05 05:20:00,
2013-05-05 01:25:00,51.2,49.0,29.76,ESE,119,10.0,11.0,92,0.32,,,0.10,Wunderground v.1.15,2013-05-05 05:25:00,
2013-05-05 01:30:00,51.4,49.2,29.76,ESE,110,11.0,12.0,92,0.09,,,0.10,Wunderground v.1.15,2013-05-05 05:30:00,
2013-05-05 01:35:00,51.5,49.3,29.75,ESE,106,11.0,12.0,92,0.05,,,0.10,Wunderground v.1.15,2013-05-05 05:35:00,
2013-05-05 01:40:00,51.5,49.0,29.75,ESE,115,10.0,22.0,91,0.04,,,0.11,Wunderground v.1.15,2013-05-05 05:40:00,
2013-05-05 01:45:00,51.8,49.3,29.75,SE,144,11.0,22.0,91,0.04,,,0.11,Wunderground v.1.15,2013-05-05 05:45:00,
2013-05-05 01:50:00,51.4,49.2,29.75,ESE,121,10.0,16.0,92,0.04,,,0.11,Wunderground v.1.15,2013-05-05 05:50:00,
2013-05-05 01:55:00,51.7,49.5,29.75,ESE,113,10.0,16.0,92,0.04,,,0.12,Wunderground v.1.15,2013-05-05 05:55:00,
2013-05-05 02:00:00,51.7,49.5,29.74,ESE,123,12.0,12.0,92,0.04,,,0.12,Wunderground v.1.15,2013-05-05 06:00:00,
2013-05-05 02:05:00,51.7,49.5,29.74,SE,129,12.0,12.0,92,0.04,,,0.12,Wunderground v.1.15,2013-05-05 06:05:00,
2013-05-05 02:10:00,51.6,49.4,29.74,East,96,11.0,11.0,92,0.04,,,0.12,Wunderground v.1.15,2013-05-05 06:10:00,
2013-05-05 02:15:00,51.7,49.2,29.73,ESE,123,13.0,13.0,91,0.00,,,0.12,Wunderground v.1.15,2013-05-05 06:15:00,
2013-05-05 02:20:00,51.4,49.2,29.73,SSE,161,14.0,14.0,92,0.59,,,0.16,Wunderground v.1.15,2013-05-05 06:20:00,
2013-05-05 02:25:00,51.2,49.0,29.71,SE,129,13.0,14.0,92,0.16,,,0.17,Wunderground v.1.15,2013-05-05 06:25:00,
2013-05-05 02:30:00,51.3,49.3,29.71,SE,137,11.0,11.0,93,0.17,,,0.18,Wunderground v.1.15,2013-05-05 06:30:00,
2013-05-05 02:35:00,51.3,49.3,29.70,East,98,11.0,11.0,93,0.07,,,0.18,Wunderground v.1.15,2013-05-05 06:35:00,
2013-05-05 02:40:00,51.4,49.2,29.70,East,92,13.0,13.0,92,0.22,,,0.20,Wunderground v.1.15,2013-05-05 06:40:00,
2013-05-05 02:45:00,51.4,49.2,29.71,East,92,14.0,14.0,92,0.28,,,0.22,Wunderground v.1.15,2013-05-05 06:45:00,
2013-05-05 02:50:00,51.4,49.2,29.72,SE,133,11.0,16.0,92,0.09,,,0.23,Wunderground v.1.15,2013-05-05 06:50:00,
2013-05-05 02:55:00,51.3,49.3,29.72,ESE,115,10.0,16.0,93,0.34,,,0.26,Wunderground v.1.15,2013-05-05 06:55:00,
2013-05-05 03:00:00,51.1,49.1,29.71,SE,146,10.0,10.0,93,0.33,,,0.28,Wunderground v.1.15,2013-05-05 07:00:00,
2013-05-05 03:05:00,50.9,49.2,29.71,ESE,115,10.0,10.0,94,0.12,,,0.29,Wunderground v.1.15,2013-05-05 07:05:00,
2013-05-05 03:10:00,50.9,48.9,29.70,ESE,113,10.0,19.0,93,0.17,,,0.30,Wunderground v.1.15,2013-05-05 07:10:00,
2013-05-05 03:15:00,51.4,49.2,29.70,ESE,109,13.0,19.0,92,0.07,,,0.30,Wunderground v.1.15,2013-05-05 07:15:00,
2013-05-05 03:20:00,51.3,49.1,29.69,SSE,150,14.0,14.0,92,0.06,,,0.31,Wunderground v.1.15,2013-05-05 07:20:00,
2013-05-05 03:25:00,51.4,48.9,29.70,East,80,10.0,14.0,91,0.06,,,0.31,Wunderground v.1.15,2013-05-05 07:25:00,
2013-05-05 03:30:00,51.4,49.2,29.68,ESE,113,9.0,11.0,92,0.04,,,0.31,Wunderground v.1.15,2013-05-05 07:30:00,
2013-05-05 03:35:00,51.8,49.0,29.70,SE,125,10.0,19.0,90,0.00,,,0.31,Wunderground v.1.15,2013-05-05 07:35:00,
2013-05-05 03:40:00,52.0,48.6,29.70,ESE,110,12.0,12.0,88,0.00,,,0.31,Wunderground v.1.15,2013-05-05 07:40:00,
2013-05-05 03:45:00,51.9,48.8,29.69,ESE,123,12.0,17.0,89,0.00,,,0.31,Wunderground v.1.15,2013-05-05 07:45:00,
2013-05-05 03:50:00,51.9,49.1,29.70,ESE,123,12.0,13.0,90,0.00,,,0.31,Wunderground v.1.15,2013-05-05 07:50:00,
2013-05-05 04:00:00,51.6,48.8,29.70,ESE,123,11.0,11.0,90,0.00,,,0.32,Wunderground v.1.15,2013-05-05 08:00:00,
2013-05-05 04:05:00,51.7,48.9,29.70,ENE,78,10.0,11.0,90,0.00,,,0.32,Wunderground v.1.15,2013-05-05 08:05:00,
2013-05-05 04:10:00,51.7,48.9,29.70,SE,142,10.0,16.0,90,0.00,,,0.32,Wunderground v.1.15,2013-05-05 08:10:00,
2013-05-05 04:15:00,51.5,49.0,29.69,SE,130,11.0,16.0,91,0.00,,,0.32,Wunderground v.1.15,2013-05-05 08:15:00,
2013-05-05 04:20:00,51.3,48.5,29.69,SE,141,12.0,12.0,90,0.00,,,0.33,Wunderground v.1.15,2013-05-05 08:20:00,
2013-05-05 04:25:00,51.2,48.1,29.67,ESE,119,13.0,17.0,89,0.00,,,0.33,Wunderground v.1.15,2013-05-05 08:25:00,
2013-05-05 04:30:00,51.5,48.4,29.68,SE,129,13.0,22.0,89,0.09,,,0.34,Wunderground v.1.15,2013-05-05 08:30:00,
2013-05-05 04:35:00,51.7,49.5,29.69,ESE,115,13.0,22.0,92,0.06,,,0.34,Wunderground v.1.15,2013-05-05 08:35:00,
2013-05-05 04:40:00,51.9,48.5,29.69,SE,133,13.0,16.0,88,0.04,,,0.34,Wunderground v.1.15,2013-05-05 08:40:00,
2013-05-05 04:45:00,51.8,48.7,29.68,ESE,115,11.0,16.0,89,0.00,,,0.34,Wunderground v.1.15,2013-05-05 08:45:00,
2013-05-05 04:50:00,51.9,48.8,29.68,SE,133,10.0,10.0,89,0.00,,,0.34,Wunderground v.1.15,2013-05-05 08:50:00,
2013-05-05 04:55:00,51.9,48.8,29.68,ESE,121,10.0,10.0,89,0.00,,,0.34,Wunderground v.1.15,2013-05-05 08:55:00,
2013-05-05 05:00:00,51.7,48.6,29.68,SE,130,9.0,11.0,89,0.00,,,0.34,Wunderground v.1.15,2013-05-05 09:00:00,
2013-05-05 05:05:00,51.8,49.0,29.70,SE,132,9.0,11.0,90,0.00,,,0.34,Wunderground v.1.15,2013-05-05 09:05:00,
2013-05-05 05:10:00,51.7,48.9,29.70,East,100,8.0,8.0,90,0.00,,,0.34,Wunderground v.1.15,2013-05-05 09:10:00,
2013-05-05 05:15:00,51.6,48.8,29.70,SE,128,8.0,14.0,90,0.00,,,0.34,Wunderground v.1.15,2013-05-05 09:15:00,
2013-05-05 05:20:00,51.5,49.0,29.70,SE,133,9.0,10.0,91,0.12,,,0.35,Wunderground v.1.15,2013-05-05 09:20:00,
2013-05-05 05:25:00,51.4,48.9,29.70,SE,133,6.0,10.0,91,0.06,,,0.35,Wunderground v.1.15,2013-05-05 09:25:00,
2013-05-05 05:30:00,51.7,48.9,29.71,SE,138,7.0,16.0,90,0.04,,,0.35,Wunderground v.1.15,2013-05-05 09:30:00,
2013-05-05 05:35:00,51.9,48.8,29.71,East,101,9.0,16.0,89,0.00,,,0.35,Wunderground v.1.15,2013-05-05 09:35:00,
2013-05-05 05:40:00,51.8,49.3,29.70,ESE,107,7.0,14.0,91,0.00,,,0.36,Wunderground v.1.15,2013-05-05 09:40:00,
2013-05-05 05:45:00,51.7,49.2,29.71,ENE,77,7.0,14.0,91,0.22,,,0.37,Wunderground v.1.15,2013-05-05 09:45:00,
2013-05-05 05:50:00,51.5,49.0,29.71,SE,132,8.0,8.0,91,0.10,,,0.38,Wunderground v.1.15,2013-05-05 09:50:00,
2013-05-05 05:55:00,51.2,49.0,29.71,SE,132,8.0,10.0,92,0.14,,,0.39,Wunderground v.1.15,2013-05-05 09:55:00,
2013-05-05 06:00:00,51.1,48.6,29.71,East,83,9.0,9.0,91,0.07,,,0.39,Wunderground v.1.15,2013-05-05 10:00:00,
2013-05-05 06:05:00,51.0,48.5,29.72,SE,142,7.0,17.0,91,0.05,,,0.40,Wunderground v.1.15,2013-05-05 10:05:00,
2013-05-05 06:15:00,50.8,48.6,29.73,SE,136,7.0,9.0,92,0.10,,,0.41,Wunderground v.1.15,2013-05-05 10:15:00,
2013-05-05 06:20:00,50.6,48.1,29.73,SE,137,6.0,7.0,91,0.06,,,0.41,Wunderground v.1.15,2013-05-05 10:20:00,
2013-05-05 06:25:00,50.4,48.2,29.73,NE,53,6.0,11.0,92,0.04,,,0.41,Wunderground v.1.15,2013-05-05 10:25:00,
2013-05-05 06:30:00,50.6,48.1,29.73,SE,128,7.0,7.0,91,0.00,,,0.41,Wunderground v.1.15,2013-05-05 10:30:00,
2013-05-05 06:35:00,50.5,48.0,29.73,ESE,113,8.0,8.0,91,0.00,,,0.41,Wunderground v.1.15,2013-05-05 10:35:00,
2013-05-05 06:40:00,50.5,48.0,29.74,ESE,122,7.0,7.0,91,0.14,,,0.42,Wunderground v.1.15,2013-05-05 10:40:00,
2013-05-05 06:45:00,50.5,48.0,29.73,ESE,113,6.0,10.0,91,0.12,,,0.43,Wunderground v.1.15,2013-05-05 10:45:00,
2013-05-05 06:50:00,50.4,48.2,29.74,SE,134,5.0,5.0,92,0.06,,,0.43,Wunderground v.1.15,2013-05-05 10:50:00,
2013-05-05 06:55:00,50.2,48.3,29.74,SE,132,3.0,5.0,93,0.04,,,0.43,Wunderground v.1.15,2013-05-05 10:55:00,
2013-05-05 07:00:00,50.1,48.2,29.74,SE,132,1.0,1.0,93,0.00,,,0.43,Wunderground v.1.15,2013-05-05 11:00:00,
2013-05-05 07:06:00,50.0,48.3,29.74,WSW,255,1.0,1.0,94,0.00,,,0.44,Wunderground v.1.15,2013-05-05 11:06:00,
2013-05-05 07:10:00,50.0,48.3,29.74,SE,134,2.0,5.0,94,0.18,,,0.45,Wunderground v.1.15,2013-05-05 11:10:00,
2013-05-05 07:15:00,49.9,48.2,29.74,ESE,111,3.0,10.0,94,0.08,,,0.46,Wunderground v.1.15,2013-05-05 11:15:00,
2013-05-05 07:20:00,49.9,48.2,29.74,SE,130,5.0,5.0,94,0.21,,,0.47,Wunderground v.1.15,2013-05-05 11:20:00,
2013-05-05 07:25:00,50.0,48.3,29.74,ESE,103,5.0,5.0,94,0.08,,,0.47,Wunderground v.1.15,2013-05-05 11:25:00,
2013-05-05 07:30:00,50.1,48.2,29.74,ESE,119,6.0,6.0,93,0.05,,,0.47,Wunderground v.1.15,2013-05-05 11:30:00,
2013-05-05 07:35:00,50.1,48.2,29.74,SE,134,5.0,6.0,93,0.00,,,0.47,Wunderground v.1.15,2013-05-05 11:35:00,
2013-05-05 07:40:00,50.1,48.2,29.74,ENE,78,4.0,4.0,93,0.00,,,0.48,Wunderground v.1.15,2013-05-05 11:40:00,
2013-05-05 07:45:00,50.1,48.2,29.74,ENE,77,4.0,4.0,93,0.10,,,0.49,Wunderground v.1.15,2013-05-05 11:45:00,
2013-05-05 07:50:00,50.3,48.1,29.74,SSW,209,4.0,6.0,92,0.07,,,0.49,Wunderground v.1.15,2013-05-05 11:50:00,
2013-05-05 07:55:00,50.5,48.3,29.75,SSE,157,5.0,6.0,92,0.04,,,0.49,Wunderground v.1.15,2013-05-05 11:55:00,
2013-05-05 08:00:00,50.5,48.3,29.75,SE,126,5.0,12.0,92,0.00,,,0.49,Wunderground v.1.15,2013-05-05 12:00:00,
2013-05-05 08:05:00,50.5,48.0,29.75,SE,131,6.0,12.0,91,0.00,,,0.49,Wunderground v.1.15,2013-05-05 12:05:00,
2013-05-05 08:10:00,50.6,48.1,29.75,SE,140,5.0,8.0,91,0.00,,,0.50,Wunderground v.1.15,2013-05-05 12:10:00,
2013-05-05 08:15:00,50.7,48.2,29.75,West,268,5.0,8.0,91,0.12,,,0.51,Wunderground v.1.15,2013-05-05 12:15:00,
2013-05-05 08:20:00,50.7,48.5,29.75,West,268,2.0,2.0,92,0.10,,,0.51,Wunderground v.1.15,2013-05-05 12:20:00,
2013-05-05 08:30:00,50.5,48.8,29.76,SE,140,0.0,0.0,94,0.04,,,0.51,Wunderground v.1.15,2013-05-05 12:30:00,
2013-05-05 08:35:00,50.4,48.7,29.76,South,180,0.0,0.0,94,0.00,,,0.51,Wunderground v.1.15,2013-05-05 12:35:00,
2013-05-05 08:40:00,50.2,48.5,29.76,ENE,57,1.0,1.0,94,0.00,,,0.51,Wunderground v.1.15,2013-05-05 12:40:00,
2013-05-05 08:45:00,50.1,48.7,29.76,WNW,291,2.0,2.0,95,0.00,,,0.51,Wunderground v.1.15,2013-05-05 12:45:00,
2013-05-05 08:50:00,49.9,48.0,29.76,SE,125,4.0,4.0,93,0.23,,,0.53,Wunderground v.1.15,2013-05-05 12:50:00,
2013-05-05 08:55:00,50.0,48.1,29.76,SSE,149,4.0,4.0,93,0.08,,,0.53,Wunderground v.1.15,2013-05-05 12:55:00,
2013-05-05 09:00:00,50.0,48.3,29.76,South,189,3.0,3.0,94,0.05,,,0.53,Wunderground v.1.15,2013-05-05 13:00:00,
2013-05-05 09:05:00,49.9,48.0,29.76,East,95,2.0,3.0,93,0.00,,,0.53,Wunderground v.1.15,2013-05-05 13:05:00,
2013-05-05 09:10:00,49.9,48.0,29.76,SW,216,1.0,2.0,93,0.00,,,0.54,Wunderground v.1.15,2013-05-05 13:10:00,
2013-05-05 09:15:00,49.9,48.0,29.77,SW,217,1.0,2.0,93,0.00,,,0.54,Wunderground v.1.15,2013-05-05 13:15:00,
2013-05-05 09:20:00,49.9,48.2,29.77,SW,217,1.0,1.0,94,0.08,,,0.55,Wunderground v.1.15,2013-05-05 13:20:00,
2013-05-05 09:25:00,50.0,48.6,29.77,SW,227,0.0,1.0,95,0.06,,,0.55,Wunderground v.1.15,2013-05-05 13:25:00,
2013-05-05 09:30:00,50.0,48.6,29.77,South,186,0.0,0.0,95,0.06,,,0.56,Wunderground v.1.15,2013-05-05 13:30:00,
2013-05-05 09:35:00,50.0,48.6,29.77,South,186,0.0,0.0,95,0.12,,,0.57,Wunderground v.1.15,2013-05-05 13:35:00,
2013-05-05 09:40:00,50.1,48.7,29.76,South,186,0.0,0.0,95,0.06,,,0.57,Wunderground v.1.15,2013-05-05 13:40:00,
2013-05-05 09:45:00,50.1,48.7,29.76,South,187,0.0,0.0,95,0.04,,,0.57,Wunderground v.1.15,2013-05-05 13:45:00,
2013-05-05 09:50:00,50.0,48.6,29.76,South,187,0.0,0.0,95,0.04,,,0.58,Wunderground v.1.15,2013-05-05 13:50:00,
2013-05-05 09:55:00,50.0,48.9,29.76,South,187,0.0,2.0,96,0.13,,,0.59,Wunderground v.1.15,2013-05-05 13:55:00,
2013-05-05 10:00:00,50.2,49.1,29.76,SE,136,1.0,3.0,96,0.06,,,0.59,Wunderground v.1.15,2013-05-05 14:00:00,
2013-05-05 10:05:00,50.1,48.7,29.76,ESE,110,1.0,3.0,95,0.04,,,0.59,Wunderground v.1.15,2013-05-05 14:05:00,
2013-05-05 10:10:00,50.1,48.7,29.76,ENE,74,2.0,2.0,95,0.00,,,0.59,Wunderground v.1.15,2013-05-05 14:10:00,
2013-05-05 10:15:00,50.2,49.1,29.76,East,99,2.0,2.0,96,0.00,,,0.59,Wunderground v.1.15,2013-05-05 14:15:00,
2013-05-05 10:20:00,50.3,49.2,29.76,East,101,1.0,1.0,96,0.00,,,0.60,Wunderground v.1.15,2013-05-05 14:20:00,
2013-05-05 10:25:00,50.3,49.2,29.76,South,172,1.0,1.0,96,0.00,,,0.60,Wunderground v.1.15,2013-05-05 14:25:00,
2013-05-05 10:30:00,50.5,49.4,29.76,South,173,0.0,0.0,96,0.06,,,0.61,Wunderground v.1.15,2013-05-05 14:30:00,
2013-05-05 10:35:00,50.3,48.6,29.76,SE,125,2.0,5.0,94,0.06,,,0.61,Wunderground v.1.15,2013-05-05 14:35:00,
2013-05-05 10:40:00,50.4,49.0,29.76,SE,138,3.0,4.0,95,0.04,,,0.61,Wunderground v.1.15,2013-05-05 14:40:00,
2013-05-05 10:45:00,50.5,49.1,29.76,ESE,113,2.0,4.0,95,0.00,,,0.61,Wunderground v.1.15,2013-05-05 14:45:00,
2013-05-05 10:50:00,50.5,48.8,29.76,NNW,331,2.0,2.0,94,0.00,,,0.61,Wunderground v.1.15,2013-05-05 14:50:00,
2013-05-05 10:55:00,50.5,48.6,29.77,SE,125,3.0,3.0,93,0.00,,,0.61,Wunderground v.1.15,2013-05-05 14:55:00,
2013-05-05 11:00:00,50.5,48.8,29.77,SSW,211,2.0,2.0,94,0.00,,,0.62,Wunderground v.1.15,2013-05-05 15:00:00,
2013-05-05 11:05:00,50.5,48.8,29.77,SSW,195,1.0,2.0,94,0.00,,,0.62,Wunderground v.1.15,2013-05-05 15:05:00,
2013-05-05 11:15:00,50.4,48.7,29.77,SE,126,1.0,2.0,94,0.06,,,0.63,Wunderground v.1.15,2013-05-05 15:15:00,
2013-05-05 11:20:00,50.5,48.8,29.77,SW,221,1.0,1.0,94,0.05,,,0.63,Wunderground v.1.15,2013-05-05 15:20:00,
2013-05-05 11:25:00,50.6,49.2,29.77,SW,221,0.0,1.0,95,0.04,,,0.63,Wunderground v.1.15,2013-05-05 15:25:00,
2013-05-05 11:30:00,50.8,49.4,29.77,SW,221,0.0,0.0,95,0.00,,,0.63,Wunderground v.1.15,2013-05-05 15:30:00,
2013-05-05 11:35:00,50.6,48.9,29.78,SSE,155,1.0,1.0,94,0.00,,,0.63,Wunderground v.1.15,2013-05-05 15:35:00,
2013-05-05 11:40:00,50.5,48.8,29.78,SSE,155,1.0,1.0,94,0.00,,,0.64,Wunderground v.1.15,2013-05-05 15:40:00,
2013-05-05 11:45:00,50.6,49.2,29.78,SE,146,0.0,1.0,95,0.10,,,0.65,Wunderground v.1.15,2013-05-05 15:45:00,
2013-05-05 11:50:00,50.4,48.7,29.77,SE,144,1.0,4.0,94,0.10,,,0.65,Wunderground v.1.15,2013-05-05 15:50:00,
2013-05-05 11:55:00,50.3,48.6,29.77,SE,130,2.0,4.0,94,0.05,,,0.65,Wunderground v.1.15,2013-05-05 15:55:00,
2013-05-05 12:00:00,50.4,49.0,29.77,SE,131,2.0,2.0,95,0.04,,,0.65,Wunderground v.1.15,2013-05-05 16:00:00,
2013-05-05 12:06:00,50.5,49.4,29.77,SSE,158,1.0,2.0,96,0.00,,,0.65,Wunderground v.1.15,2013-05-05 16:06:00,
2013-05-05 12:10:00,50.5,49.1,29.77,SSE,163,2.0,4.0,95,0.00,,,0.65,Wunderground v.1.15,2013-05-05 16:10:00,
2013-05-05 12:15:00,50.3,48.6,29.78,SE,130,2.0,4.0,94,0.00,,,0.66,Wunderground v.1.15,2013-05-05 16:15:00,
2013-05-05 12:20:00,50.3,48.6,29.78,SE,130,1.0,2.0,94,0.09,,,0.66,Wunderground v.1.15,2013-05-05 16:20:00,
2013-05-05 12:25:00,50.5,49.1,29.77,SE,130,0.0,2.0,95,0.09,,,0.67,Wunderground v.1.15,2013-05-05 16:25:00,
2013-05-05 12:30:00,50.5,49.1,29.78,SE,128,0.0,1.0,95,0.06,,,0.67,Wunderground v.1.15,2013-05-05 16:30:00,
2013-05-05 12:35:00,50.5,49.1,29.77,SE,126,1.0,2.0,95,0.04,,,0.67,Wunderground v.1.15,2013-05-05 16:35:00,
2013-05-05 12:40:00,50.6,49.2,29.77,SE,126,1.0,1.0,95,0.00,,,0.67,Wunderground v.1.15,2013-05-05 16:40:00,
2013-05-05 12:45:00,50.8,49.7,29.78,SE,126,0.0,1.0,96,0.00,,,0.67,Wunderground v.1.15,2013-05-05 16:45:00,
2013-05-05 12:50:00,51.0,49.9,29.78,SE,125,1.0,3.0,96,0.00,,,0.67,Wunderground v.1.15,2013-05-05 16:50:00,
2013-05-05 12:55:00,51.1,50.0,29.77,ESE,123,2.0,3.0,96,0.00,,,0.67,Wunderground v.1.15,2013-05-05 16:55:00,
2013-05-05 13:00:00,51.3,50.2,29.78,SE,128,3.0,3.0,96,0.00,,,0.67,Wunderground v.1.15,2013-05-05 17:00:00,
2013-05-05 13:05:00,51.5,50.4,29.78,ESE,107,3.0,5.0,96,0.00,,,0.67,Wunderground v.1.15,2013-05-05 17:05:00,
2013-05-05 13:10:00,51.4,50.0,29.78,SE,129,3.0,7.0,95,0.00,,,0.67,Wunderground v.1.15,2013-05-05 17:10:00,
2013-05-05 13:15:00,51.4,50.0,29.77,SE,129,6.0,7.0,95,0.00,,,0.68,Wunderground v.1.15,2013-05-05 17:15:00,
2013-05-05 13:25:00,51.8,50.4,29.77,ESE,111,6.0,11.0,95,0.00,,,0.68,Wunderground v.1.15,2013-05-05 17:25:00,
2013-05-05 13:30:00,52.0,50.6,29.76,ESE,114,5.0,7.0,95,0.00,,,0.68,Wunderground v.1.15,2013-05-05 17:30:00,
2013-05-05 13:35:00,52.3,51.2,29.76,East,88,5.0,7.0,96,0.00,,,0.68,Wunderground v.1.15,2013-05-05 17:35:00,
2013-05-05 13:40:00,52.1,50.4,29.76,ESE,111,5.0,5.0,94,0.00,,,0.68,Wunderground v.1.15,2013-05-05 17:40:00,
2013-05-05 13:45:00,51.9,49.9,29.76,ESE,111,6.0,6.0,93,0.00,,,0.68,Wunderground v.1.15,2013-05-05 17:45:00,
2013-05-05 13:50:00,52.1,50.7,29.76,ESE,119,5.0,10.0,95,0.00,,,0.68,Wunderground v.1.15,2013-05-05 17:50:00,
2013-05-05 14:00:00,51.8,50.1,29.76,SE,132,7.0,7.0,94,0.00,,,0.68,Wunderground v.1.15,2013-05-05 18:00:00,
2013-05-05 14:05:00,51.9,50.2,29.76,ESE,105,7.0,7.0,94,0.00,,,0.68,Wunderground v.1.15,2013-05-05 18:05:00,
2013-05-05 14:10:00,51.8,49.8,29.76,SE,126,7.0,7.0,93,0.00,,,0.68,Wunderground v.1.15,2013-05-05 18:10:00,
2013-05-05 14:15:00,52.0,50.3,29.76,ESE,109,7.0,7.0,94,0.00,,,0.68,Wunderground v.1.15,2013-05-05 18:15:00,
2013-05-05 14:20:00,52.1,50.4,29.75,SE,126,7.0,9.0,94,0.00,,,0.68,Wunderground v.1.15,2013-05-05 18:20:00,
2013-05-05 14:25:00,52.4,50.7,29.75,ESE,105,8.0,9.0,94,0.00,,,0.68,Wunderground v.1.15,2013-05-05 18:25:00,
2013-05-05 14:30:00,53.0,51.3,29.75,SE,132,7.0,9.0,94,0.00,,,0.68,Wunderground v.1.15,2013-05-05 18:30:00,
2013-05-05 14:35:00,52.9,50.6,29.75,SE,131,7.0,12.0,92,0.00,,,0.68,Wunderground v.1.15,2013-05-05 18:35:00,
2013-05-05 14:40:00,52.9,50.6,29.76,East,96,8.0,10.0,92,0.00,,,0.68,Wunderground v.1.15,2013-05-05 18:40:00,
2013-05-05 14:45:00,52.9,50.3,29.75,ESE,102,8.0,10.0,91,0.00,,,0.68,Wunderground v.1.15,2013-05-05 18:45:00,
2013-05-05 14:50:00,53.2,51.5,29.75,SE,128,7.0,7.0,94,0.00,,,0.68,Wunderground v.1.15,2013-05-05 18:50:00,
2013-05-05 14:55:00,53.2,50.9,29.75,ESE,111,6.0,7.0,92,0.00,,,0.68,Wunderground v.1.15,2013-05-05 18:55:00,
2013-05-05 15:00:00,53.4,51.7,29.75,SE,125,6.0,6.0,94,0.00,,,0.68,Wunderground v.1.15,2013-05-05 19:00:00,
2013-05-05 15:05:00,53.9,52.2,29.75,ESE,115,5.0,6.0,94,0.00,,,0.68,Wunderground v.1.15,2013-05-05 19:05:00,
2013-05-05 15:10:00,54.1,52.1,29.75,SE,145,5.0,8.0,93,0.00,,,0.68,Wunderground v.1.15,2013-05-05 19:10:00,
2013-05-05 15:15:00,54.1,52.1,29.75,SE,140,4.0,8.0,93,0.00,,,0.68,Wunderground v.1.15,2013-05-05 19:15:00,
2013-05-05 15:20:00,53.8,51.8,29.75,ESE,107,4.0,5.0,93,0.00,,,0.68,Wunderground v.1.15,2013-05-05 19:20:00,
2013-05-05 15:25:00,53.5,50.9,29.75,SE,142,5.0,12.0,91,0.00,,,0.68,Wunderground v.1.15,2013-05-05 19:25:00,
2013-05-05 15:30:00,53.5,51.5,29.75,ESE,118,5.0,9.0,93,0.00,,,0.68,Wunderground v.1.15,2013-05-05 19:30:00,
2013-05-05 15:35:00,53.5,51.5,29.75,SE,135,4.0,9.0,93,0.00,,,0.68,Wunderground v.1.15,2013-05-05 19:35:00,
2013-05-05 15:40:00,53.0,50.4,29.75,SE,141,5.0,6.0,91,0.00,,,0.68,Wunderground v.1.15,2013-05-05 19:40:00,
2013-05-05 15:45:00,52.6,50.3,29.74,SE,126,6.0,6.0,92,0.00,,,0.68,Wunderground v.1.15,2013-05-05 19:45:00,
2013-05-05 15:50:00,52.2,49.9,29.74,ESE,122,6.0,6.0,92,0.00,,,0.68,Wunderground v.1.15,2013-05-05 19:50:00,
2013-05-05 15:55:00,52.1,50.1,29.75,SE,142,5.0,6.0,93,0.00,,,0.68,Wunderground v.1.15,2013-05-05 19:55:00,
2013-05-05 16:00:00,52.1,50.1,29.75,ESE,107,4.0,7.0,93,0.00,,,0.68,Wunderground v.1.15,2013-05-05 20:00:00,
2013-05-05 16:05:00,52.2,50.5,29.75,SE,143,4.0,7.0,94,0.00,,,0.68,Wunderground v.1.15,2013-05-05 20:05:00,
2013-05-05 16:10:00,52.2,50.5,29.75,SE,133,4.0,4.0,94,0.00,,,0.68,Wunderground v.1.15,2013-05-05 20:10:00,
2013-05-05 16:15:00,52.3,50.6,29.75,SE,132,3.0,4.0,94,0.00,,,0.68,Wunderground v.1.15,2013-05-05 20:15:00,
2013-05-05 16:20:00,52.3,50.6,29.75,SE,126,3.0,3.0,94,0.00,,,0.68,Wunderground v.1.15,2013-05-05 20:20:00,
2013-05-05 16:25:00,52.3,50.9,29.75,SE,128,2.0,3.0,95,0.00,,,0.68,Wunderground v.1.15,2013-05-05 20:25:00,
2013-05-05 16:30:00,52.2,50.5,29.75,SE,129,2.0,2.0,94,0.00,,,0.68,Wunderground v.1.15,2013-05-05 20:30:00,
2013-05-05 16:35:00,52.1,50.4,29.76,SSW,209,1.0,2.0,94,0.00,,,0.68,Wunderground v.1.15,2013-05-05 20:35:00,
2013-05-05 16:40:00,51.9,50.2,29.76,SSE,159,1.0,1.0,94,0.00,,,0.69,Wunderground v.1.15,2013-05-05 20:40:00,
2013-05-05 16:45:00,51.6,49.9,29.76,ESE,123,1.0,1.0,94,0.00,,,0.69,Wunderground v.1.15,2013-05-05 20:45:00,
2013-05-05 16:50:00,51.5,50.1,29.76,SE,125,1.0,2.0,95,0.00,,,0.69,Wunderground v.1.15,2013-05-05 20:50:00,
2013-05-05 16:55:00,51.3,49.9,29.75,SE,128,2.0,2.0,95,0.00,,,0.69,Wunderground v.1.15,2013-05-05 20:55:00,
2013-05-05 17:00:00,51.3,50.2,29.75,ESE,123,2.0,5.0,96,0.00,,,0.69,Wunderground v.1.15,2013-05-05 21:00:00,
2013-05-05 17:05:00,51.5,50.4,29.75,SE,126,3.0,5.0,96,0.00,,,0.69,Wunderground v.1.15,2013-05-05 21:05:00,
2013-05-05 17:15:00,51.0,49.9,29.75,SE,130,3.0,4.0,96,0.16,,,0.71,Wunderground v.1.15,2013-05-05 21:15:00,
2013-05-05 17:20:00,51.0,49.9,29.75,SE,129,2.0,2.0,96,0.09,,,0.71,Wunderground v.1.15,2013-05-05 21:20:00,
2013-05-05 17:25:00,51.0,49.9,29.75,ESE,110,2.0,2.0,96,0.05,,,0.71,Wunderground v.1.15,2013-05-05 21:25:00,
2013-05-05 17:30:00,51.0,49.9,29.75,ESE,117,2.0,3.0,96,0.04,,,0.72,Wunderground v.1.15,2013-05-05 21:30:00,
2013-05-05 17:35:00,50.9,49.8,29.75,ESE,114,2.0,3.0,96,0.16,,,0.73,Wunderground v.1.15,2013-05-05 21:35:00,
2013-05-05 17:40:00,51.0,49.9,29.75,ESE,114,2.0,2.0,96,0.07,,,0.73,Wunderground v.1.15,2013-05-05 21:40:00,
2013-05-05 17:45:00,51.2,50.4,29.74,ESE,116,2.0,2.0,97,0.12,,,0.75,Wunderground v.1.15,2013-05-05 21:45:00,
2013-05-05 17:50:00,51.4,50.6,29.74,ESE,115,2.0,2.0,97,0.11,,,0.75,Wunderground v.1.15,2013-05-05 21:50:00,
2013-05-05 17:55:00,51.6,50.8,29.74,ESE,118,2.0,5.0,97,0.06,,,0.75,Wunderground v.1.15,2013-05-05 21:55:00,
2013-05-05 18:00:00,52.1,51.3,29.73,SE,126,4.0,7.0,97,0.04,,,0.75,Wunderground v.1.15,2013-05-05 22:00:00,
2013-05-05 18:05:00,51.9,50.8,29.72,ESE,122,5.0,7.0,96,0.00,,,0.75,Wunderground v.1.15,2013-05-05 22:05:00,
2013-05-05 18:10:00,52.6,51.5,29.72,ESE,122,5.0,5.0,96,0.00,,,0.75,Wunderground v.1.15,2013-05-05 22:10:00,
2013-05-05 18:15:00,52.9,51.5,29.72,ESE,113,4.0,5.0,95,0.00,,,0.75,Wunderground v.1.15,2013-05-05 22:15:00,
2013-05-05 18:20:00,53.5,52.4,29.72,SE,132,3.0,3.0,96,0.00,,,0.75,Wunderground v.1.15,2013-05-05 22:20:00,
2013-05-05 18:25:00,53.3,51.3,29.71,ESE,113,2.0,5.0,93,0.00,,,0.75,Wunderground v.1.15,2013-05-05 22:25:00,
2013-05-05 18:30:00,53.2,50.6,29.71,SE,132,3.0,3.0,91,0.00,,,0.75,Wunderground v.1.15,2013-05-05 22:30:00,
2013-05-05 18:35:00,53.1,50.8,29.70,ENE,75,3.0,4.0,92,0.00,,,0.75,Wunderground v.1.15,2013-05-05 22:35:00,
2013-05-05 18:40:00,53.0,50.7,29.71,South,184,2.0,2.0,92,0.00,,,0.75,Wunderground v.1.15,2013-05-05 22:40:00,
2013-05-05 18:45:00,52.9,50.3,29.71,ESE,107,2.0,2.0,91,0.00,,,0.75,Wunderground v.1.15,2013-05-05 22:45:00,
2013-05-05 18:50:00,52.8,50.5,29.71,SE,132,2.0,3.0,92,0.00,,,0.75,Wunderground v.1.15,2013-05-05 22:50:00,
2013-05-05 18:55:00,52.7,49.5,29.71,SE,128,3.0,3.0,89,0.00,,,0.75,Wunderground v.1.15,2013-05-05 22:55:00,
2013-05-05 19:00:00,52.6,50.0,29.71,ESE,117,3.0,5.0,91,0.00,,,0.75,Wunderground v.1.15,2013-05-05 23:00:00,
2013-05-05 19:05:00,52.3,50.0,29.71,SE,127,3.0,5.0,92,0.00,,,0.75,Wunderground v.1.15,2013-05-05 23:05:00,
2013-05-05 19:10:00,52.2,49.9,29.71,East,83,3.0,10.0,92,0.00,,,0.75,Wunderground v.1.15,2013-05-05 23:10:00,
2013-05-05 19:15:00,52.1,49.8,29.70,ESE,109,3.0,10.0,92,0.00,,,0.75,Wunderground v.1.15,2013-05-05 23:15:00,
2013-05-05 19:20:00,52.0,49.7,29.70,ESE,113,2.0,2.0,92,0.00,,,0.75,Wunderground v.1.15,2013-05-05 23:20:00,
2013-05-05 19:25:00,51.9,49.9,29.70,ESE,123,1.0,2.0,93,0.00,,,0.75,Wunderground v.1.15,2013-05-05 23:25:00,
2013-05-05 19:30:00,51.7,49.7,29.70,SE,130,2.0,2.0,93,0.00,,,0.75,Wunderground v.1.15,2013-05-05 23:30:00,
2013-05-05 19:35:00,51.5,49.5,29.71,SE,125,2.0,2.0,93,0.00,,,0.75,Wunderground v.1.15,2013-05-05 23:35:00,
2013-05-05 19:40:00,51.4,49.4,29.71,SE,124,2.0,2.0,93,0.00,,,0.75,Wunderground v.1.15,2013-05-05 23:40:00,
2013-05-05 19:45:00,51.4,49.4,29.71,ESE,123,1.0,2.0,93,0.00,,,0.75,Wunderground v.1.15,2013-05-05 23:45:00,
2013-05-05 19:50:00,51.3,49.3,29.71,SE,124,0.0,0.0,93,0.00,,,0.75,Wunderground v.1.15,2013-05-05 23:50:00,
2013-05-05 19:55:00,51.1,49.4,29.71,SE,124,0.0,1.0,94,0.00,,,0.75,Wunderground v.1.15,2013-05-05 23:55:00,
2013-05-05 20:00:00,51.0,49.3,29.72,SE,124,0.0,0.0,94,0.00,,,0.75,Wunderground v.1.15,2013-05-06 00:00:00,
2013-05-05 20:05:00,50.8,49.1,29.72,ESE,123,0.0,0.0,94,0.00,,,0.75,Wunderground v.1.15,2013-05-06 00:05:00,
2013-05-05 20:10:00,50.6,49.2,29.72,SE,124,0.0,0.0,95,0.00,,,0.75,Wunderground v.1.15,2013-05-06 00:10:00,
2013-05-05 20:20:00,50.4,49.0,29.73,SE,124,0.0,0.0,95,0.00,,,0.75,Wunderground v.1.15,2013-05-06 00:20:00,
2013-05-05 20:25:00,50.4,49.0,29.73,SE,124,0.0,0.0,95,0.00,,,0.75,Wunderground v.1.15,2013-05-06 00:25:00,
2013-05-05 20:30:00,50.4,49.3,29.73,SE,124,0.0,0.0,96,0.00,,,0.75,Wunderground v.1.15,2013-05-06 00:30:00,
2013-05-05 20:35:00,50.4,49.3,29.73,ESE,123,0.0,0.0,96,0.00,,,0.75,Wunderground v.1.15,2013-05-06 00:35:00,
2013-05-05 20:40:00,50.4,49.3,29.73,SE,124,0.0,0.0,96,0.00,,,0.75,Wunderground v.1.15,2013-05-06 00:40:00,
2013-05-05 20:45:00,50.3,49.2,29.73,ESE,123,0.0,0.0,96,0.00,,,0.75,Wunderground v.1.15,2013-05-06 00:45:00,
2013-05-05 20:50:00,50.3,49.2,29.73,SE,124,0.0,0.0,96,0.00,,,0.75,Wunderground v.1.15,2013-05-06 00:50:00,
2013-05-05 20:55:00,50.2,49.1,29.73,SE,124,0.0,0.0,96,0.00,,,0.75,Wunderground v.1.15,2013-05-06 00:55:00,
2013-05-05 21:00:00,50.1,49.0,29.73,ESE,123,0.0,0.0,96,0.00,,,0.75,Wunderground v.1.15,2013-05-06 01:00:00,
2013-05-05 21:05:00,50.2,49.1,29.73,SE,124,0.0,0.0,96,0.00,,,0.75,Wunderground v.1.15,2013-05-06 01:05:00,
2013-05-05 21:10:00,50.1,49.0,29.73,ESE,123,0.0,0.0,96,0.00,,,0.75,Wunderground v.1.15,2013-05-06 01:10:00,
2013-05-05 21:15:00,50.1,49.0,29.73,SE,124,0.0,0.0,96,0.00,,,0.75,Wunderground v.1.15,2013-05-06 01:15:00,
2013-05-05 21:20:00,50.1,49.0,29.73,ESE,123,0.0,0.0,96,0.00,,,0.75,Wunderground v.1.15,2013-05-06 01:20:00,
2013-05-05 21:25:00,50.1,49.0,29.74,ESE,123,0.0,0.0,96,0.00,,,0.75,Wunderground v.1.15,2013-05-06 01:25:00,
2013-05-05 21:30:00,50.1,49.3,29.74,SE,124,0.0,0.0,97,0.00,,,0.75,Wunderground v.1.15,2013-05-06 01:30:00,
2013-05-05 21:35:00,50.1,49.3,29.73,SE,124,0.0,0.0,97,0.00,,,0.75,Wunderground v.1.15,2013-05-06 01:35:00,
2013-05-05 21:40:00,50.1,49.3,29.73,SE,124,0.0,0.0,97,0.00,,,0.75,Wunderground v.1.15,2013-05-06 01:40:00,
2013-05-05 21:45:00,50.1,49.0,29.73,ESE,123,0.0,0.0,96,0.00,,,0.75,Wunderground v.1.15,2013-05-06 01:45:00,
2013-05-05 21:50:00,50.1,49.3,29.73,SE,124,0.0,0.0,97,0.00,,,0.75,Wunderground v.1.15,2013-05-06 01:50:00,
2013-05-05 21:55:00,50.2,49.4,29.72,ESE,123,0.0,0.0,97,0.00,,,0.75,Wunderground v.1.15,2013-05-06 01:55:00,
2013-05-05 22:00:00,50.2,49.4,29.72,SSE,150,0.0,2.0,97,0.00,,,0.75,Wunderground v.1.15,2013-05-06 02:00:00,
2013-05-05 22:06:00,50.1,49.0,29.72,SSE,151,1.0,2.0,96,0.00,,,0.75,Wunderground v.1.15,2013-05-06 02:06:00,
2013-05-05 22:10:00,50.1,49.0,29.72,SSE,151,1.0,1.0,96,0.00,,,0.75,Wunderground v.1.15,2013-05-06 02:10:00,
2013-05-05 22:15:00,50.1,49.0,29.73,SSE,150,0.0,1.0,96,0.00,,,0.75,Wunderground v.1.15,2013-05-06 02:15:00,
2013-05-05 22:20:00,50.1,49.3,29.74,SSW,202,0.0,2.0,97,0.00,,,0.75,Wunderground v.1.15,2013-05-06 02:20:00,
2013-05-05 22:25:00,50.1,49.3,29.74,WNW,300,1.0,2.0,97,0.00,,,0.76,Wunderground v.1.15,2013-05-06 02:25:00,
2013-05-05 22:30:00,50.0,49.2,29.74,NW,325,1.0,1.0,97,0.11,,,0.77,Wunderground v.1.15,2013-05-06 02:30:00,
2013-05-05 22:40:00,48.6,47.2,29.75,WNW,284,1.0,1.0,95,1.72,,,0.83,Wunderground v.1.15,2013-05-06 02:40:00,
2013-05-05 22:45:00,48.1,46.7,29.75,West,266,1.0,1.0,95,0.69,,,0.86,Wunderground v.1.15,2013-05-06 02:45:00,
2013-05-05 22:50:00,47.7,46.3,29.75,West,266,0.0,0.0,95,0.24,,,0.89,Wunderground v.1.15,2013-05-06 02:50:00,
2013-05-05 22:55:00,47.5,46.4,29.76,West,266,0.0,0.0,96,0.18,,,0.91,Wunderground v.1.15,2013-05-06 02:55:00,
2013-05-05 23:00:00,47.3,46.2,29.77,West,265,0.0,0.0,96,0.61,,,0.94,Wunderground v.1.15,2013-05-06 03:00:00,
2013-05-05 23:06:00,47.1,46.0,29.78,West,265,0.0,0.0,96,0.56,,,0.97,Wunderground v.1.15,2013-05-06 03:06:00,
2013-05-05 23:10:00,47.0,45.9,29.77,West,266,0.0,0.0,96,0.42,,,0.99,Wunderground v.1.15,2013-05-06 03:10:00,
2013-05-05 23:15:00,47.0,45.9,29.77,West,266,0.0,0.0,96,0.45,,,1.01,Wunderground v.1.15,2013-05-06 03:15:00,
2013-05-05 23:20:00,46.9,45.8,29.78,West,266,0.0,0.0,96,0.13,,,1.02,Wunderground v.1.15,2013-05-06 03:20:00,
2013-05-05 23:25:00,46.8,45.7,29.78,West,267,0.0,0.0,96,0.14,,,1.03,Wunderground v.1.15,2013-05-06 03:25:00,
2013-05-05 23:30:00,46.5,45.4,29.78,West,266,0.0,0.0,96,0.21,,,1.05,Wunderground v.1.15,2013-05-06 03:30:00,
2013-05-05 23:35:00,46.3,45.2,29.78,West,267,0.0,0.0,96,0.33,,,1.06,Wunderground v.1.15,2013-05-06 03:35:00,
2013-05-05 23:40:00,46.3,45.5,29.78,West,267,0.0,0.0,97,0.12,,,1.07,Wunderground v.1.15,2013-05-06 03:40:00,
2013-05-05 23:45:00,46.3,45.2,29.79,West,267,0.0,0.0,96,0.19,,,1.09,Wunderground v.1.15,2013-05-06 03:45:00,
2013-05-05 23:50:00,46.2,45.4,29.78,West,267,0.0,0.0,97,0.12,,,1.09,Wunderground v.1.15,2013-05-06 03:50:00,
2013-05-05 23:55:00,46.2,45.4,29.78,West,267,0.0,0.0,97,0.33,,,1.11,Wunderground v.1.15,2013-05-06 03:55:00,